Indianapolis, IN

2:26 PM EST on November 20, 2019 (GMT -0500)
Indianapolis International

Weather History for KIND - May, 2019

Change the Weather History Date:

Thursday, May 2, 2019

  Actual Average Record
Temperature  
Mean Temperature 63 °F 58 °F  
Max Temperature 71 °F 69 °F 87 °F (1959)
Min Temperature 55 °F 48 °F 31 °F (1961)
Degree Days  
Heating Degree Days 2 7  
Month to date heating degree days 2 15  
Since 1 July heating degree days 5253 5237  
Cooling Degree Days 0 1  
Month to date cooling degree days 1 2  
Year to date cooling degree days 2 17  
Growing Degree Days 13 (Base 50)    
Moisture  
Dew Point 59 °F    
Average Humidity 89    
Maximum Humidity 100    
Minimum Humidity 78    
Precipitation  
Precipitation 0.12 in 0.15 in 2.93 in (1935)
Month to date precipitation 0.31 0.31  
Year to date precipitation 17.79 12.66  
Snow  
Snow 0.00 in 0.00 in 2.40 in (1897)
Month to date snowfall 0.0 0.0  
Since 1 July snowfall 19.4 25.9  
Snow Depth 0.00 in    
Sea Level Pressure  
Sea Level Pressure 30.08 in    
Wind  
Wind Speed 5 mph (SSW)    
Max Wind Speed 15 mph    
Max Gust Speed 21 mph    
Visibility 4 miles    
Events Fog , Rain , Thunderstorm    
T = Trace of Precipitation, MM = Missing Value Source: NWS Daily Summary

Daily Weather History Graph

Daily Weather History Graph

Search for Another Location

Airport or City:

Astronomy

May. 02, 2019 Rise Set
Actual Time 6:44 AM EDT 8:40 PM EDT
Civil Twilight 6:15 AM EDT 9:09 PM EDT
Nautical Twilight 5:39 AM EDT 9:45 PM EDT
Astronomical Twilight 5:01 AM EDT 10:23 PM EDT
Moon 5:56 AM EDT (5/2) 6:27 PM EDT (5/2)
Length of Visible Light 14h 53m
Length of Day
13h 55m
Waning Crescent, 5% of the Moon is Illuminated
May 2
Waning Crescent
May 4
New
May 11
First Quarter
May 18
Full
May 26
Last Quarter

Hourly Weather History & Observations

Time (EDT) Temp. Dew Point Humidity Pressure Visibility Wind Dir Wind Speed Gust Speed Precip Events Conditions
12:20 AM 59.0 °F 59.0 °F 100% 30.08 in 1.5 mi South 5.8 mph - N/A   Overcast
12:38 AM 57.9 °F 57.9 °F 100% 30.08 in 0.5 mi SSW 4.6 mph - N/A Fog Fog
12:54 AM 57.9 °F 57.9 °F 100% 30.07 in 0.2 mi SSW 3.5 mph - N/A Fog Fog
1:26 AM 57.0 °F 57.0 °F 100% 30.09 in 0.5 mi Calm Calm - N/A Fog Fog
1:54 AM 57.0 °F 57.0 °F 100% 30.09 in 0.2 mi WSW 3.5 mph - N/A Fog Fog
2:21 AM 57.9 °F 57.9 °F 100% 30.10 in 0.2 mi West 3.5 mph - N/A Fog Fog
2:54 AM 57.0 °F 57.0 °F 100% 30.07 in 0.2 mi Calm Calm - N/A Fog Fog
3:38 AM 57.0 °F 55.9 °F 96% 30.09 in 0.5 mi Calm Calm - N/A Fog Fog
3:45 AM 55.9 °F 55.9 °F 100% 30.08 in 0.2 mi Calm Calm - N/A Fog Fog
3:54 AM 55.9 °F 55.9 °F 100% 30.07 in 0.2 mi Calm Calm - N/A Fog Fog
4:05 AM 55.9 °F 55.9 °F 100% 30.09 in 0.5 mi East 3.5 mph - N/A Fog Fog
4:17 AM 55.9 °F 55.9 °F 100% 30.08 in 1.0 mi East 3.5 mph - N/A   Mostly Cloudy
4:54 AM 55.9 °F 55.9 °F 100% 30.07 in 1.0 mi East 3.5 mph - N/A   Mist
5:26 AM 55.9 °F 55.9 °F 100% 30.08 in 1.0 mi ESE 3.5 mph - N/A   Overcast
5:54 AM 55.9 °F 55.0 °F 97% 30.07 in 1.0 mi East 3.5 mph - N/A   Mostly Cloudy
6:24 AM 55.9 °F 55.9 °F 100% 30.08 in 2.0 mi Calm Calm - N/A   Mostly Cloudy
6:33 AM 57.0 °F 55.9 °F 96% 30.08 in 1.0 mi East 4.6 mph - N/A   Mist
6:45 AM 57.0 °F 57.0 °F 100% 30.07 in 0.1 mi East 5.8 mph - N/A Fog Fog
6:54 AM 57.0 °F 57.0 °F 100% 30.07 in 0.1 mi Calm Calm - N/A Fog Fog
7:01 AM 57.0 °F 57.0 °F 100% 30.07 in 0.1 mi Calm Calm - N/A Fog Fog
7:54 AM 57.9 °F 57.9 °F 100% 30.09 in 0.1 mi SSE 4.6 mph - N/A Fog Fog
8:36 AM 59.0 °F 59.0 °F 100% 30.09 in 0.2 mi SE 5.8 mph - N/A Fog Fog
8:50 AM 59.0 °F 59.0 °F 100% 30.08 in 0.1 mi SE 8.1 mph - N/A Fog Fog
8:54 AM 59.0 °F 59.0 °F 100% 30.07 in 0.1 mi SE 8.1 mph - N/A Fog Fog
9:04 AM 60.1 °F 60.1 °F 100% 30.08 in 0.1 mi SE 5.8 mph - N/A Fog Fog
9:30 AM 60.1 °F 60.1 °F 100% 30.08 in 0.2 mi SSE 8.1 mph - N/A Fog Fog
9:38 AM 61.0 °F 61.0 °F 100% 30.09 in 0.2 mi SE 8.1 mph - N/A Fog Fog
9:54 AM 61.0 °F 61.0 °F 100% 30.09 in 0.5 mi SSE 8.1 mph - N/A Fog Fog
10:12 AM 61.0 °F 61.0 °F 100% 30.10 in 1.5 mi SSE 8.1 mph - N/A   Overcast
10:30 AM 61.0 °F 61.0 °F 100% 30.14 in 2.5 mi SW 13.8 mph - 0.00 in Rain Light Rain
10:45 AM 61.0 °F 61.0 °F 100% 30.13 in 3.0 mi SW 6.9 mph - 0.00 in Rain , Thunderstorm Light Thunderstorms and Rain
10:54 AM 62.1 °F 62.1 °F 100% 30.13 in 4.0 mi SW 5.8 mph - 0.00 in Rain , Thunderstorm Light Thunderstorms and Rain
11:13 AM 62.1 °F 61.0 °F 96% 30.13 in 3.0 mi WSW 5.8 mph - 0.03 in Rain Light Rain
11:30 AM 62.1 °F 62.1 °F 100% 30.13 in 5.0 mi SSW 6.9 mph - 0.05 in Rain Light Rain
11:54 AM 63.0 °F 62.1 °F 97% 30.13 in 4.0 mi SSW 6.9 mph - 0.07 in Rain Light Rain
12:13 PM 63.0 °F 62.1 °F 97% 30.13 in 3.0 mi SW 5.8 mph - 0.03 in Rain Light Rain
12:54 PM 64.0 °F 62.1 °F 93% 30.11 in 6.0 mi SSE 6.9 mph - 0.05 in Rain Light Rain
1:36 PM 66.0 °F 62.1 °F 87% 30.10 in 10.0 mi Variable 5.8 mph - 0.00 in Rain Light Rain
1:50 PM 66.2 °F 62.6 °F 88% 30.09 in 10.0 mi WSW 6.9 mph - 0.00 in Rain Light Rain
1:54 PM 66.0 °F 62.1 °F 87% 30.08 in 10.0 mi WSW 6.9 mph - 0.00 in Rain Light Rain
2:54 PM 66.9 °F 61.0 °F 81% 30.07 in 10.0 mi SSW 8.1 mph - 0.00 in   Mostly Cloudy
3:51 PM 68.0 °F 60.8 °F 78% 30.06 in 10.0 mi WSW 11.5 mph - 0.00 in Rain Light Rain
3:54 PM 69.1 °F 62.1 °F 78% 30.05 in 10.0 mi WSW 12.7 mph - 0.00 in Rain Light Rain
4:54 PM 70.0 °F 62.1 °F 76% 30.03 in 10.0 mi WSW 10.4 mph - 0.00 in Rain Light Rain
5:10 PM 70.0 °F 62.1 °F 76% 30.02 in 10.0 mi WSW 6.9 mph - 0.00 in Rain Light Rain
5:54 PM 69.1 °F 62.1 °F 78% 30.01 in 10.0 mi West 6.9 mph - 0.00 in   Overcast
6:54 PM 69.1 °F 62.1 °F 78% 30.03 in 10.0 mi WSW 6.9 mph - N/A   Overcast
7:54 PM 66.9 °F 62.1 °F 84% 30.02 in 10.0 mi Calm Calm - N/A   Overcast
8:54 PM 64.9 °F 60.1 °F 84% 30.02 in 10.0 mi South 6.9 mph - N/A   Overcast
9:54 PM 62.1 °F 59.0 °F 90% 30.03 in 10.0 mi SW 5.8 mph - N/A   Mostly Cloudy
10:54 PM 63.0 °F 60.1 °F 90% 30.03 in 10.0 mi SSW 4.6 mph - N/A   Overcast
11:54 PM 62.1 °F 60.1 °F 93% 30.02 in 10.0 mi West 5.8 mph - N/A   Mostly Cloudy